New Richmond, WI

7:03 AM CDT on August 18, 2017 (GMT -0500)
New Richmond Municipal

Weather History for KRNH - November, 2013

Change the Weather History Date:

Sunday, November 10, 2013

  Actual Average (KSTP) Record (KSTP)
Temperature  
Mean Temperature 36 °F -  
Max Temperature 43 °F 42 °F 68 °F (2012)
Min Temperature 29 °F 28 °F 21 °F (1996)
Degree Days  
Heating Degree Days 29    
Moisture  
Dew Point 28 °F    
Average Humidity 68    
Maximum Humidity 83    
Minimum Humidity 51    
Precipitation  
Precipitation 0.00 in - - ()
Sea Level Pressure  
Sea Level Pressure 30.21 in    
Wind  
Wind Speed 11 mph (WSW)    
Max Wind Speed 20 mph    
Max Gust Speed 26 mph    
Visibility 10 miles    
Events      
Averages and records for this station are not official NWS values.
T = Trace of Precipitation, MM = Missing Value Source: NWS Daily Summary

Daily Weather History Graph

Daily Weather History Graph

Search for Another Location

Airport or City:

Trip Planner

Search our weather history database for the weather conditions in past years. The results will help you decide how hot, cold, wet, or windy it might be!

Date:

Astronomy

Nov. 10, 2013 Rise Set
Actual Time 7:01 AM CST 4:45 PM CST
Civil Twilight 6:30 AM CST 5:17 PM CST
Nautical Twilight 5:54 AM CST 5:52 PM CST
Astronomical Twilight 5:20 AM CST 6:27 PM CST
Moon 1:09 PM CST (11/10) No Moon Set
Length of Visible Light 10h 47m
Length of Day
9h 44m
First Quarter, 56% of the Moon is Illuminated
Nov 10
First Quarter
Nov 17
Full
Nov 25
Last Quarter
Dec 2
New
Dec 9
First Quarter

Hourly Weather History & Observations

Time (CST) Temp. Windchill Dew Point Humidity Pressure Visibility Wind Dir Wind Speed Gust Speed Precip Events Conditions
12:15 AM 36.7 °F 27.6 °F 28.4 °F 72% 30.16 in 10.0 mi WNW 15.0 mph 19.6 mph N/A   Overcast
12:35 AM 36.9 °F 27.8 °F 28.4 °F 71% 30.17 in 10.0 mi WNW 15.0 mph 25.3 mph N/A   Overcast
12:55 AM 36.9 °F 27.5 °F 28.4 °F 71% 30.18 in 10.0 mi WNW 16.1 mph - N/A   Overcast
1:15 AM 36.9 °F 27.5 °F 28.4 °F 71% 30.18 in 10.0 mi NW 16.1 mph 24.2 mph N/A   Overcast
1:35 AM 36.9 °F 26.5 °F 28.8 °F 72% 30.19 in 10.0 mi WNW 19.6 mph - N/A   Overcast
1:55 AM 36.9 °F 26.8 °F 28.6 °F 72% 30.19 in 10.0 mi NW 18.4 mph 26.5 mph N/A   Overcast
2:15 AM 36.7 °F 27.2 °F 28.9 °F 74% 30.20 in 10.0 mi NW 16.1 mph 21.9 mph N/A   Overcast
2:35 AM 36.5 °F 28.7 °F 28.6 °F 73% 30.21 in 10.0 mi NW 11.5 mph 20.7 mph N/A   Overcast
2:55 AM 36.5 °F 27.4 °F 28.2 °F 72% 30.22 in 10.0 mi WNW 15.0 mph 18.4 mph N/A   Overcast
3:15 AM 36.5 °F 27.4 °F 27.9 °F 71% 30.23 in 10.0 mi NW 15.0 mph - N/A   Overcast
3:35 AM 36.5 °F 28.2 °F 28.0 °F 71% 30.24 in 10.0 mi WNW 12.7 mph - N/A   Overcast
3:55 AM 36.0 °F 29.6 °F 28.2 °F 73% 30.24 in 10.0 mi NW 8.1 mph - N/A   Overcast
4:15 AM 36.0 °F 28.0 °F 27.5 °F 71% 30.25 in 10.0 mi NW 11.5 mph 16.1 mph N/A   Overcast
4:35 AM 36.0 °F 27.1 °F 25.7 °F 66% 30.25 in 10.0 mi NNW 13.8 mph - N/A   Overcast
4:55 AM 35.8 °F 28.3 °F 25.7 °F 67% 30.26 in 10.0 mi NW 10.4 mph 18.4 mph N/A   Overcast
5:15 AM 35.6 °F 28.0 °F 26.6 °F 70% 30.28 in 10.0 mi NW 10.4 mph - N/A   Overcast
5:35 AM 35.6 °F 28.6 °F 25.7 °F 67% 30.28 in 10.0 mi NW 9.2 mph - N/A   Overcast
5:55 AM 34.7 °F 29.6 °F 25.9 °F 70% 30.28 in 10.0 mi NNW 5.8 mph - N/A   Overcast
6:15 AM 34.0 °F 29.8 °F 26.2 °F 73% 30.28 in 10.0 mi WNW 4.6 mph - N/A   Overcast
6:35 AM 32.4 °F 27.9 °F 25.7 °F 76% 30.29 in 10.0 mi West 4.6 mph - N/A   Overcast
6:55 AM 32.0 °F 26.4 °F 25.2 °F 76% 30.29 in 10.0 mi West 5.8 mph - N/A   Mostly Cloudy
7:15 AM 30.2 °F 25.4 °F 24.4 °F 79% 30.29 in 10.0 mi West 4.6 mph - N/A   Scattered Clouds
7:35 AM 29.7 °F 22.8 °F 25.0 °F 83% 30.30 in 10.0 mi WSW 6.9 mph - N/A   Clear
7:55 AM 32.7 °F 25.7 °F 25.7 °F 75% 30.31 in 10.0 mi West 8.1 mph - N/A   Scattered Clouds
8:15 AM 34.0 °F 27.2 °F 26.6 °F 74% 30.31 in 10.0 mi West 8.1 mph - N/A   Scattered Clouds
8:35 AM 34.5 °F 28.6 °F 27.0 °F 74% 30.31 in 10.0 mi West 6.9 mph - N/A   Clear
8:55 AM 36.0 °F 29.6 °F 27.1 °F 70% 30.31 in 10.0 mi West 8.1 mph - N/A   Clear
9:15 AM 37.2 °F 31.9 °F 26.8 °F 66% 30.31 in 10.0 mi West 6.9 mph - N/A   Clear
9:35 AM 37.8 °F 34.2 °F 26.1 °F 63% 30.29 in 10.0 mi West 4.6 mph - N/A   Clear
9:55 AM 38.7 °F 33.6 °F 26.4 °F 61% 30.30 in 10.0 mi WSW 6.9 mph - N/A   Clear
10:15 AM 39.2 °F 34.2 °F 26.2 °F 60% 30.30 in 10.0 mi WSW 6.9 mph - N/A   Clear
10:35 AM 39.4 °F 33.8 °F 25.7 °F 58% 30.30 in 10.0 mi West 8.1 mph - N/A   Clear
10:55 AM 39.0 °F 33.4 °F 25.0 °F 57% 30.29 in 10.0 mi West 8.1 mph - N/A   Clear
11:15 AM 40.1 °F 34.1 °F 26.1 °F 57% 30.29 in 10.0 mi SSW 9.2 mph - N/A   Clear
11:35 AM 40.1 °F 34.1 °F 25.9 °F 57% 30.28 in 10.0 mi SW 9.2 mph - N/A   Clear
11:55 AM 40.5 °F 36.5 °F 25.7 °F 56% 30.26 in 10.0 mi WSW 5.8 mph - N/A   Clear
12:15 PM 40.3 °F 34.4 °F 27.0 °F 59% 30.25 in 10.0 mi SSW 9.2 mph - N/A   Clear
12:35 PM 41.4 °F 37.6 °F 26.8 °F 56% 30.24 in 10.0 mi WSW 5.8 mph - N/A   Clear
12:55 PM 42.3 °F 35.9 °F 26.8 °F 54% 30.25 in 10.0 mi SW 11.5 mph - N/A   Clear
1:15 PM 43.3 °F 36.8 °F 26.4 °F 51% 30.24 in 10.0 mi SSW 12.7 mph - N/A   Clear
1:35 PM 42.3 °F 36.3 °F 27.1 °F 55% 30.22 in 10.0 mi SW 10.4 mph 16.1 mph N/A   Clear
1:55 PM 42.3 °F 35.5 °F 26.4 °F 54% 30.22 in 10.0 mi WSW 12.7 mph - N/A   Scattered Clouds
2:15 PM 41.5 °F 34.6 °F 26.2 °F 55% 30.22 in 10.0 mi WSW 12.7 mph - N/A   Mostly Cloudy
2:35 PM 40.8 °F 34.1 °F 25.9 °F 55% 30.22 in 10.0 mi WSW 11.5 mph - N/A   Overcast
2:55 PM 40.1 °F 32.7 °F 26.6 °F 59% 30.22 in 10.0 mi SW 12.7 mph - N/A   Overcast
3:15 PM 39.4 °F 33.8 °F 27.0 °F 61% 30.20 in 10.0 mi SW 8.1 mph - N/A   Overcast
3:35 PM 39.2 °F 33.0 °F 27.0 °F 62% 30.19 in 10.0 mi SW 9.2 mph - N/A   Overcast
3:55 PM 38.7 °F 31.8 °F 27.1 °F 63% 30.19 in 10.0 mi SW 10.4 mph - N/A   Overcast
4:15 PM 38.5 °F 32.7 °F 27.5 °F 65% 30.18 in 10.0 mi SW 8.1 mph - N/A   Overcast
4:35 PM 38.3 °F 31.4 °F 27.9 °F 66% 30.18 in 10.0 mi SW 10.4 mph - N/A   Overcast
4:55 PM 37.9 °F 31.5 °F 27.9 °F 67% 30.17 in 10.0 mi SW 9.2 mph - N/A   Overcast
5:15 PM 37.8 °F 32.5 °F 28.2 °F 68% 30.17 in 10.0 mi SW 6.9 mph - N/A   Overcast
5:35 PM 37.6 °F 32.3 °F 28.4 °F 69% 30.16 in 10.0 mi SSW 6.9 mph - N/A   Overcast
5:55 PM 37.4 °F 32.8 °F 28.8 °F 71% 30.16 in 10.0 mi SW 5.8 mph - N/A   Overcast
6:15 PM 37.4 °F 33.8 °F 29.1 °F 72% 30.16 in 10.0 mi SSW 4.6 mph - N/A   Overcast
6:35 PM 37.4 °F 32.8 °F 29.3 °F 73% 30.15 in 10.0 mi SSW 5.8 mph - N/A   Overcast
6:55 PM 36.9 °F 32.2 °F 29.3 °F 74% 30.14 in 10.0 mi South 5.8 mph - N/A   Overcast
7:15 PM 37.0 °F 31.6 °F 29.5 °F 74% 30.12 in 10.0 mi South 6.9 mph - N/A   Overcast
7:35 PM 37.0 °F 31.6 °F 29.7 °F 75% 30.12 in 10.0 mi SSW 6.9 mph - N/A   Overcast
7:55 PM 37.0 °F 30.4 °F 29.8 °F 75% 30.13 in 10.0 mi SW 9.2 mph - N/A   Overcast
8:15 PM 37.0 °F 31.6 °F 29.8 °F 75% 30.13 in 10.0 mi SW 6.9 mph - N/A   Overcast
8:35 PM 37.4 °F 30.3 °F 29.7 °F 74% 30.11 in 10.0 mi SSW 10.4 mph - N/A   Overcast
8:55 PM 37.4 °F 32.1 °F 29.7 °F 74% 30.11 in 10.0 mi SW 6.9 mph - N/A   Overcast
9:15 PM 37.4 °F 30.3 °F 29.7 °F 74% 30.10 in 10.0 mi SW 10.4 mph - N/A   Overcast
9:35 PM 37.4 °F 31.4 °F 29.5 °F 73% 30.10 in 10.0 mi SW 8.1 mph - N/A   Overcast
9:55 PM 37.4 °F 32.1 °F 29.7 °F 74% 30.09 in 10.0 mi SW 6.9 mph - N/A   Overcast
10:15 PM 37.2 °F 31.9 °F 29.8 °F 75% 30.10 in 10.0 mi WSW 6.9 mph - N/A   Overcast
10:35 PM 36.9 °F 33.1 °F 30.0 °F 76% 30.09 in 10.0 mi WSW 4.6 mph - N/A   Overcast
10:55 PM 36.9 °F 32.2 °F 29.8 °F 76% 30.10 in 10.0 mi West 5.8 mph - N/A   Overcast
11:15 PM 36.7 °F 32.9 °F 30.0 °F 77% 30.10 in 10.0 mi WNW 4.6 mph - N/A   Overcast
11:35 PM 36.5 °F 31.8 °F 30.0 °F 77% 30.10 in 10.0 mi WNW 5.8 mph - N/A   Overcast
11:55 PM 36.5 °F 31.0 °F 29.8 °F 77% 30.09 in 10.0 mi WNW 6.9 mph - N/A   Overcast